Regional Weather Roundup
Issued by NWS Charleston, SC

Current Version | Previous Version | Graphics & Text | Print | Product List | Glossary On
Versions: 1 2 3 4 5 6 7 8 9 10 11 12 13 14 15 16 17 18 19 20 21 22 23 24 25 26 27 28 29 30 31 32 33 34 35 36 37 38 39 40 41 42 43 44 45 46 47 48 49 50
000 ASUS42 KCHS 280911 RWRCHS REGIONAL WEATHER ROUNDUP NATIONAL WEATHER SERVICE CHARLESTON SC 500 AM EDT SAT MAR 28 2015 NOTE: "FAIR" INDICATES FEW OR NO CLOUDS BELOW 12,000 FEET WITH NO SIGNIFICANT WEATHER AND/OR OBSTRUCTIONS TO VISIBILITY. NOT ALL STATIONS ARE QUALITY CONTROLLED BY THE NATIONAL WEATHER SERVICE. USE DATA WITH CAUTION...ESPECIALLY DEWPOINT OBSERVATIONS. SCZ027-030-031-034>040-042>050-281000- ...SOUTHEAST SOUTH CAROLINA... CITY SKY/WX TMP DP RH WIND PRES REMARKS N CHARLESTON CLEAR 45 42 89 W7 29.95R WATERFRONT PRK N/A 46 N/A N/A W8 N/A MOUNT PLEASANT FAIR 46 43 87 W6 29.94R PINOPOLIS N/A 48 45 87 W15 29.86R MONCKS CORNER PTSUNNY 45 43 93 CALM 29.94R SUMMERVILLE FAIR 45 45 100 NW6 29.95S BEAUFORT MCAS CLEAR 46 42 86 W6 29.96R BEAUFORT ARPT FAIR 46 45 93 CALM 29.96R HILTON HEAD IS PTCLDY 48 45 87 W3 29.97S WALTERBORO SUNNY 43 41 93 NW6 29.96S ALLENDALE FAIR 45 39 81 VRB3 29.96R ...SOUTHERN MIDLANDS AND PEE DEE... CITY SKY/WX TMP DP RH WIND PRES REMARKS GEORGETOWN NOT AVBL KINGSTREE NOT AVBL ORANGEBURG PTCLDY 44 36 73 NW6 29.96R BARNWELL FAIR 45 43 93 W5 29.97S AIKEN FAIR 36 34 93 W6 29.99R WCI 31 MANNING LGT RAIN 43 30 61 NW3 29.94R COLUMBIA PTCLDY 43 34 70 NW7 29.95R SUMTER PTCLDY 43 38 83 W5 29.92R FLORENCE PTCLDY 44 40 85 W6 29.91R MYRTLE BEACH PTCLDY 46 43 87 NW6 29.92R N MYRTLE BEACH PTCLDY 45 42 89 CALM 29.89S $$ GAZ063-065-086>088-099>101-113>116-118-119-134>141-150-281000- ...SOUTHEAST GEORGIA... CITY SKY/WX TMP DP RH WIND PRES REMARKS SAVANNAH ARPT CLEAR 47 36 65 NW9 29.98R HUNTER AAF CLEAR 45 43 92 W8 29.96R FORT STEWART CLEAR 46 33 59 NW6 29.96S STATESBORO CLEAR 45 34 67 NW10 29.98S SYLVANIA SUNNY 45 37 73 NW9 29.99R CLAXTON FAIR 46 34 61 W7G17 30.00R ...CSRA...CENTRAL AND FAR SOUTHEAST GEORGIA... CITY SKY/WX TMP DP RH WIND PRES REMARKS THOMSON CLEAR 41 33 72 CALM 30.03S AUGUSTA-BUSH CLEAR 41 31 67 W5 29.99R AUGUSTA-DANIEL CLEAR 44 29 55 W7 29.98R SWAINSBORO FAIR 45 27 49 NW8 30.01R VIDALIA CLEAR 45 34 65 NW10 30.00R EASTMAN FAIR 43 35 72 NW5 30.05R HAZLEHURST FAIR 45 36 70 W3 30.02R ALMA CLEAR 45 33 63 W6 30.03R WAYCROSS CLEAR 48 37 66 NW7 30.03R JESUP FAIR 46 37 71 W5 30.01R BAXLEY FAIR 46 34 61 W5 30.01R BRUNSWICK CLEAR 45 37 76 W7 30.01R SAINT SIMONS CLEAR 49 35 58 W8 30.00R $$ SCZ027-028-034-036>038-045-046-048>050-GAZ119-141-281000- ...LAKE AND SUPPLEMENTAL COASTAL OBSERVATIONS... STATION/POSITION TIME TEMP WIND PRES WAVE SWELL AIR SEA DIR/SP/G HT/PER HT/PER/DIR (UTC) (F) (DEG/KT/KT) (MB) (FT/S) (FT/S/D) UPR LAKE MARION NOT AVBL WINYAH BAY NOT AVBL LAKE MURRAY 0800 43 300/ 3/ 7 1013.2S ACE BASIN NERRS NOT AVBL FORT PULASKI 0800 50 60 310/ 8/ 10 1014.9R SAPELO ISLAND 0800 51 310/ 11 1015.0S $$ ANZ835-935-AMZ111-154-330-350-352-354-370-450-454-472-281000- ...C-MAN AND BUOY OBSERVATIONS... STATION/POSITION TIME TEMP WIND PRES WAVE SWELL AIR SEA DIR/SP/G HT/PER HT/PER/DIR (UTC) (F) (DEG/KT/KT) (MB) (FT/S) (FT/S/D) BUOY 41004 0850 53 68 320/ 17/ 21 1012.1R 5/ 8 2/ 8 BUOY 41008 0850 54 61 320/ 17/ 19 1014.2R 3/ 4 2/ 90/ 9 FOLLY BEACH CMAN 0900 47 300/ 7/ 10 1013.9R CAPERS NEARSHORE 0800 49 320/ 14/ 17 N/A FRIPP NEARSHORE 0800 51 320/ 14/ 16 1013.8R STATION/POSITION TIME TEMP WIND PRES WAVE SWELL AIR SEA DIR/SP/G HT/PER HT/PER/DIR (UTC) (F) (DEG/KT/KT) (MB) (FT/S) (FT/S/D) 5E ST. MARYS GA 0821 61 N/A 3/ 3 FRYING PAN BUOY 0850 51 65 310/ 19/ 23 1011.2R 7/ 8 3/140/ 8 BUOY 41025 NOT AVBL CAPE LOOKOUT NC 0900 44 330/ 16/ 19 1010.0R BUOY 41002 0850 66 69 290/ 27/ 35 1006.7R 13/ 8 BUOY 41010 0820 67 76 310/ 25/ 31 1012.4R ST AUGUSTINE FL 0900 51 59 300/ 8/ 11 1017.4R $$

USA.gov is the U.S. government's official web portal to all federal, state and local government web resources and services.